This demonstration page uses our WeatherBlox Daily Observations layout. Learn more.

Left ArrowRight Arrow

34.74481, -87.66753

Hourly Observations for May 5, 2020

Temp ( °F °C ) Dew Point ( °F °C ) Humidity (%) Winds ( mph kmh ) Pressure ( in mb ) Visibility ( mi km ) Precip ( " mm )
12:53 am 00:53 Mostly Clear 67 19.4 61 16.1 81 81 SSE 3 6 29.86 1011 10 16 0.00 0.00
1:53 am 01:53 Clear 68 20 63 17.2 84 84 SSE 9 15 29.81 1010 10 16 0.00 0.00
2:53 am 02:53 Clear 69 20.6 64 17.8 84 84 S 7 11 29.80 1009 10 16 0.00 0.00
3:53 am 03:53 Mostly Cloudy 70 21.1 64 17.8 82 82 SSW 6 9 29.83 1010 10 16 0.00 0.00
4:53 am 04:53 Clear 71 21.7 64 17.8 79 79 S 8 13 29.78 1008 10 16 0.00 0.00
5:53 am 05:53 Mostly Clear 72 22.2 64 17.8 76 76 S 13 20 29.74 1007 10 16 0.00 0.00
6:53 am 06:53 Sunny 73 22.8 65 18.3 76 76 W 14 22 29.81 1010 10 16 0.00 0.00
8:45 am 08:45 Mostly Cloudy 75 23.9 66 18.9 74 74 WSW 15 24 29.83 1010 10 16 0.00 0.00
8:53 am 08:53 Mostly Cloudy 75 23.9 66 18.9 74 74 W 13 20 29.83 1010 10 16 0.00 0.00
9:08 am 09:08 Cloudy 75 23.9 66 18.9 74 74 W 13 20 29.83 1010 10 16 0.00 0.00
9:53 am 09:53 Cloudy 75 23.9 66 18.9 74 74 W 15 24 29.84 1011 10 16 0.00 0.00
10:53 am 10:53 Cloudy 76 24.4 67 19.4 74 74 W 16 26 29.86 1011 10 16 0.00 0.00
11:44 am 11:44 Cloudy with Light Rain 72 22.2 68 20 87 87 WNW 10 17 29.86 1011 4 6 0.01 0.25
11:53 am 11:53 Cloudy with Light Rain 72 22.2 68 20 87 87 WNW 10 17 29.87 1011 9 14 0.01 0.25
12:01 pm 12:01 Cloudy 73 22.8 68 20 84 84 W 12 19 29.86 1011 10 16 0.00 0.00
12:53 pm 12:53 Cloudy 72 22.2 66 18.9 82 82 WNW 17 28 29.88 1012 10 16 0.00 0.00
1:22 pm 13:22 Cloudy with Light Rain 70 21.1 65 18.3 84 84 NW 14 22 29.89 1012 9 14 0.00 0.00
1:53 pm 13:53 Cloudy 71 21.7 63 17.2 76 76 NW 16 26 29.89 1012 10 16 0.00 0.00
2:53 pm 14:53 Cloudy 71 21.7 60 15.6 68 68 NW 15 24 29.90 1013 10 16 0.00 0.00
3:44 pm 15:44 Partly Cloudy 73 22.8 58 14.4 59 59 WNW 15 24 29.88 1012 10 16 0.00 0.00
3:53 pm 15:53 Mostly Sunny 74 23.3 59 15 60 60 WNW 18 30 29.88 1012 10 16 0.00 0.00
4:53 pm 16:53 Sunny 72 22.2 57 13.9 59 59 NNW 13 20 29.84 1011 10 16 0.00 0.00
5:53 pm 17:53 Sunny 73 22.8 55 12.8 53 53 NW 12 19 29.87 1012 10 16 0.00 0.00
6:53 pm 18:53 Sunny 70 21.1 55 12.8 59 59 NW 9 15 29.90 1013 10 16 0.00 0.00
7:53 pm 19:53 Clear 67 19.4 54 12.2 63 63 NW 5 7 29.93 1013 10 16 0.00 0.00
8:53 pm 20:53 Clear 63 17.2 55 12.8 76 76 Calm 29.95 1014 10 16 0.00 0.00
9:53 pm 21:53 Clear 62 16.7 56 13.3 80 80 undefined N/A 29.98 1015 10 16 0.00 0.00
10:53 pm 22:53 Clear 61 16.1 56 13.3 84 84 undefined N/A 29.97 1015 10 16 0.00 0.00
11:53 pm 23:53 Clear 59 15 54 12.2 83 83 undefined N/A 29.98 1015 10 16 0.00 0.00

Powered by AerisWeather